| time (UTC) | temp C | wind direction | speed KPH | gust KPH | rain 1hr cm | rain 24hr cm | rain mn cm | humidity % | barometer mb |
| 20260503220135 | 13 | 82 | 4.8 | 14.5 | 0.00 | 0.00 | 0.00 | 44 | 1008.6 |
| 20260503214630 | 13 | 136 | 3.2 | 11.3 | 0.00 | 0.00 | 0.00 | 44 | 1008.5 |
| 20260503213123 | 13 | 82 | 3.2 | 12.9 | 0.00 | 0.00 | 0.00 | 47 | 1008.5 |
| 20260503211639 | 13 | 90 | 1.6 | 9.7 | 0.00 | 0.00 | 0.00 | 48 | 1008.5 |
| 20260503210136 | 13 | 60 | 3.2 | 8.0 | 0.00 | 0.00 | 0.00 | 45 | 1008.6 |
| 20260503204636 | 13 | 109 | 1.6 | 14.5 | 0.00 | 0.00 | 0.00 | 47 | 1008.7 |
| 20260503203128 | 13 | 91 | 3.2 | 22.5 | 0.00 | 0.00 | 0.00 | 45 | 1008.8 |
| 20260503201637 | 12 | 105 | 1.6 | 16.1 | 0.00 | 0.00 | 0.00 | 48 | 1008.9 |
| 20260503200155 | 12 | 66 | 4.8 | 11.3 | 0.00 | 0.00 | 0.00 | 45 | 1009.1 |
| 20260503194631 | 12 | 142 | 6.4 | 16.1 | 0.00 | 0.00 | 0.00 | 44 | 1009.1 |
| 20260503193144 | 12 | 91 | 4.8 | 12.9 | 0.00 | 0.00 | 0.00 | 43 | 1009.2 |
| 20260503191639 | 13 | 75 | 4.8 | 19.3 | 0.00 | 0.00 | 0.00 | 42 | 1009.4 |
| 20260503190133 | 13 | 57 | 6.4 | 20.9 | 0.00 | 0.00 | 0.00 | 41 | 1009.4 |
| 20260503184630 | 13 | 98 | 3.2 | 9.7 | 0.00 | 0.00 | 0.00 | 40 | 1009.7 |
| 20260503183125 | 13 | 127 | 6.4 | 16.1 | 0.00 | 0.00 | 0.00 | 40 | 1009.9 |
| 20260503181636 | 12 | 196 | 4.8 | 11.3 | 0.00 | 0.00 | 0.00 | 39 | 1010.1 |
| 20260503180146 | 11 | 77 | 4.8 | 17.7 | 0.00 | 0.00 | 0.00 | 40 | 1010.2 |
| 20260503174638 | 11 | 98 | 1.6 | 16.1 | 0.00 | 0.00 | 0.00 | 38 | 1010.5 |
| 20260503173152 | 12 | 115 | 6.4 | 12.9 | 0.00 | 0.00 | 0.00 | 39 | 1010.6 |
| 20260503171640 | 11 | 72 | 4.8 | 12.9 | 0.00 | 0.00 | 0.00 | 40 | 1010.7 |
| 20260503170136 | 11 | 93 | 4.8 | 14.5 | 0.00 | 0.00 | 0.00 | 38 | 1011.0 |
| 20260503160127 | 11 | 179 | 3.2 | 11.3 | 0.00 | 0.00 | 0.00 | 44 | 1011.8 |
| 20260503140129 | 8 | 84 | 6.4 | 17.7 | 0.00 | 0.00 | 0.00 | 55 | 1012.6 |
| 20260503130207 | 6 | 117 | 3.2 | 12.9 | 0.00 | 0.00 | 0.00 | 69 | 1012.9 |
| 20260503120128 | 5 | 122 | 1.6 | 12.9 | 0.00 | 0.00 | 0.00 | 73 | 1012.6 |
| 20260503110125 | 3 | 100 | 1.6 | 8.0 | 0.00 | 0.00 | 0.00 | 80 | 1012.2 |
| 20260503100133 | 3 | 105 | 0.0 | 1.6 | 0.00 | 0.00 | 0.00 | 80 | 1012.0 |
| 20260503090126 | 4 | 94 | 1.6 | 3.2 | 0.00 | 0.00 | 0.00 | 79 | 1012.1 |
| 20260503080126 | 4 | 95 | 0.0 | 3.2 | 0.00 | 0.00 | 0.00 | 78 | 1012.0 |
| 20260503071633 | 4 | 94 | 0.0 | 6.4 | 0.00 | 0.03 | 0.00 | 80 | 1012.1 |
| 20260503070129 | 4 | 88 | 0.0 | 8.0 | 0.00 | 0.03 | 0.00 | 80 | 1012.1 |
| 20260503060131 | 2 | 126 | 0.0 | 0.0 | 0.00 | 0.03 | 0.00 | 90 | 1012.3 |
| 20260503054623 | 2 | 126 | 0.0 | 0.0 | 0.00 | 0.03 | 0.00 | 90 | 1012.2 |
| 20260503053157 | 2 | 126 | 0.0 | 0.0 | 0.00 | 0.03 | 0.00 | 90 | 1012.4 |
| 20260503051634 | 2 | 126 | 0.0 | 0.0 | 0.00 | 0.03 | 0.00 | 90 | 1012.7 |
| 20260503050128 | 1 | 126 | 0.0 | 0.0 | 0.00 | 0.03 | 0.00 | 90 | 1012.8 |
| 20260503044641 | 1 | 126 | 0.0 | 0.0 | 0.00 | 0.03 | 0.00 | 90 | 1012.9 |
| 20260503043136 | 1 | 126 | 0.0 | 0.0 | 0.00 | 0.03 | 0.00 | 90 | 1013.0 |
| 20260503041628 | 1 | 126 | 0.0 | 0.0 | 0.00 | 0.03 | 0.00 | 89 | 1013.1 |
| 20260503040124 | 1 | 126 | 0.0 | 0.0 | 0.00 | 0.03 | 0.00 | 88 | 1013.1 |
| 20260503034641 | 1 | 126 | 0.0 | 0.0 | 0.00 | 0.08 | 0.03 | 89 | 1013.2 |
| 20260503033143 | 1 | 126 | 0.0 | 0.0 | 0.00 | 0.08 | 0.03 | 89 | 1013.3 |
| 20260503031640 | 1 | 126 | 0.0 | 0.0 | 0.00 | 0.08 | 0.03 | 88 | 1013.3 |
| 20260503030135 | 1 | 126 | 0.0 | 0.0 | 0.00 | 0.08 | 0.03 | 87 | 1013.3 |
| 20260503024631 | 1 | 126 | 0.0 | 0.0 | 0.00 | 0.18 | 0.03 | 85 | 1013.4 |
| 20260503023142 | 2 | 126 | 0.0 | 0.0 | 0.00 | 0.18 | 0.03 | 84 | 1013.4 |
| 20260503021628 | 2 | 126 | 0.0 | 0.0 | 0.00 | 0.18 | 0.03 | 82 | 1013.4 |
| 20260503020140 | 3 | 127 | 0.0 | 0.0 | 0.00 | 0.18 | 0.03 | 80 | 1013.7 |
| 20260503014629 | 3 | 126 | 0.0 | 0.0 | 0.00 | 0.23 | 0.03 | 78 | 1013.7 |
| 20260503013130 | 3 | 127 | 0.0 | 3.2 | 0.00 | 0.23 | 0.03 | 77 | 1013.7 |
| 20260503011624 | 3 | 116 | 0.0 | 0.0 | 0.00 | 0.23 | 0.03 | 76 | 1013.6 |
| 20260503010139 | 3 | 116 | 0.0 | 0.0 | 0.00 | 0.23 | 0.03 | 75 | 1013.5 |
| 20260503004655 | 4 | 116 | 0.0 | 0.0 | 0.00 | 0.36 | 0.03 | 72 | 1013.1 |
| 20260503003132 | 5 | 115 | 0.0 | 1.6 | 0.00 | 0.36 | 0.03 | 70 | 1013.0 |
| 20260503001652 | 5 | 116 | 0.0 | 1.6 | 0.00 | 0.36 | 0.03 | 68 | 1013.1 |
| 20260503000146 | 6 | 108 | 0.0 | 6.4 | 0.00 | 0.36 | 0.03 | 67 | 1013.0 |
| 20260502234641 | 6 | 104 | 0.0 | 1.6 | 0.00 | 0.43 | 0.03 | 66 | 1012.8 |
| 20260502233139 | 6 | 184 | 1.6 | 8.0 | 0.00 | 0.43 | 0.03 | 64 | 1012.6 |
| 20260502231638 | 7 | 53 | 4.8 | 14.5 | 0.00 | 0.43 | 0.03 | 61 | 1012.6 |
| 20260502230130 | 7 | 95 | 4.8 | 11.3 | 0.00 | 0.43 | 0.03 | 60 | 1012.7 |
| 20260502224622 | 7 | 107 | 3.2 | 11.3 | 0.00 | 0.46 | 0.03 | 60 | 1012.5 |
| 20260502223208 | 7 | 141 | 1.6 | 12.9 | 0.00 | 0.46 | 0.03 | 61 | 1012.5 |
| 20260502221637 | 7 | 74 | 4.8 | 14.5 | 0.00 | 0.46 | 0.03 | 59 | 1012.6 |